Lavon Lake Weather Center

Moon Phase Calendar



Lavon Lake Water Level
Online Cameras

 


      

Current Conditions in Culleoka
2/28/2024 4:12:41 PM

46°F
Feels Like 40
Clear
Humidity
32%
Pressure
30.3"
Wind
13.8 mph (N)
Dew Point
20°F
UV Index
1/10 (Low)
Visibility
6 mi

Hourly Forecast

Date & Time Wed, Feb 28
4:00 PM
Wed, Feb 28
5:00 PM
Wed, Feb 28
6:00 PM
Wed, Feb 28
7:00 PM
Wed, Feb 28
8:00 PM
Wed, Feb 28
9:00 PM
Wed, Feb 28
10:00 PM
Wed, Feb 28
11:00 PM
Thu, Feb 29
12:00 AM
Thu, Feb 29
1:00 AM
Thu, Feb 29
2:00 AM
Thu, Feb 29
3:00 AM
Thu, Feb 29
4:00 AM
Thu, Feb 29
5:00 AM
Thu, Feb 29
6:00 AM
Thu, Feb 29
7:00 AM
Thu, Feb 29
8:00 AM
Thu, Feb 29
9:00 AM
Thu, Feb 29
10:00 AM
Thu, Feb 29
11:00 AM
Thu, Feb 29
12:00 PM
Thu, Feb 29
1:00 PM
Thu, Feb 29
2:00 PM
Thu, Feb 29
3:00 PM
Thu, Feb 29
4:00 PM
Thu, Feb 29
5:00 PM
Thu, Feb 29
6:00 PM
Thu, Feb 29
7:00 PM
Thu, Feb 29
8:00 PM
Thu, Feb 29
9:00 PM
Thu, Feb 29
10:00 PM
Thu, Feb 29
11:00 PM
Fri, Mar 1
12:00 AM
Fri, Mar 1
1:00 AM
Fri, Mar 1
2:00 AM
Fri, Mar 1
3:00 AM
Fri, Mar 1
4:00 AM
Fri, Mar 1
5:00 AM
Fri, Mar 1
6:00 AM
Fri, Mar 1
7:00 AM
Fri, Mar 1
8:00 AM
Fri, Mar 1
9:00 AM
Fri, Mar 1
10:00 AM
Fri, Mar 1
11:00 AM
Fri, Mar 1
12:00 PM
Fri, Mar 1
1:00 PM
Fri, Mar 1
2:00 PM
Fri, Mar 1
3:00 PM
Condition
Clear

Clouds

Clouds

Clouds

Clouds

Clouds

Clouds

Clouds

Clouds

Clouds

Clouds

Clouds

Clouds

Clouds

Clouds

Clouds

Clouds

Clouds

Clouds

Clouds

Clouds

Clouds

Rain

Rain

Rain

Clouds

Clouds

Clouds

Clouds

Clouds

Clouds

Clouds

Clouds

Clear

Clear

Clear

Clear

Clear

Clear

Clear

Clear

Clear

Clear

Clear

Clear

Clear

Clear

Clear
Temperature 46°F46°F46°F45°F44°F42°F42°F41°F41°F42°F42°F42°F42°F42°F41°F42°F43°F45°F47°F49°F49°F48°F48°F47°F46°F45°F44°F42°F41°F40°F39°F38°F38°F37°F37°F37°F37°F37°F37°F37°F40°F46°F51°F56°F60°F64°F67°F69°F
Feels Like 39°F40°F40°F39°F40°F39°F37°F36°F38°F39°F38°F36°F37°F36°F35°F37°F38°F40°F43°F45°F46°F46°F44°F42°F43°F41°F39°F37°F35°F34°F34°F34°F32°F32°F32°F32°F32°F32°F32°F32°F36°F41°F49°F53°F58°F62°F65°F67°F
Cloudiness 0%20%40%60%80%100%100%100%100%100%100%100%100%100%100%100%100%100%100%100%100%100%100%100%100%100%100%62%53%43%34%27%23%0%0%0%0%1%1%1%1%1%1%0%0%0%0%0%
Visibility 6 mi6 mi6 mi6 mi6 mi6 mi6 mi6 mi6 mi6 mi6 mi6 mi6 mi6 mi6 mi6 mi6 mi6 mi6 mi6 mi6 mi6 mi6 mi6 mi6 mi6 mi6 mi6 mi6 mi6 mi6 mi6 mi6 mi6 mi6 mi6 mi6 mi6 mi6 mi6 mi6 mi6 mi6 mi6 mi6 mi6 mi6 mi6 mi
Precipitation 0%0%0%0%0%0%0%0%0%0%0%0%0%0%0%1%0%0%0%0%0%40%66%73%80%76%58%0%0%0%0%0%0%0%0%0%0%0%0%0%0%0%0%0%0%0%0%0%
Humidity 32%31%30%28%28%29%30%31%32%32%33%34%36%39%43%41%41%36%34%32%32%38%46%51%55%61%64%75%79%82%86%89%92%94%95%96%96%96%96%95%89%74%63%54%49%44%41%40%
Dew Point 20°F19°F18°F16°F15°F12°F13°F13°F14°F14°F15°F16°F17°F19°F20°F20°F21°F20°F20°F20°F21°F24°F28°F30°F31°F32°F33°F34°F34°F35°F35°F35°F36°F36°F36°F36°F36°F36°F36°F36°F37°F38°F39°F40°F41°F41°F42°F43°F
Pressure 30.3"30.3"30.33"30.36"30.36"30.42"30.39"30.39"30.42"30.42"30.42"30.36"30.36"30.36"30.36"30.39"30.39"30.39"30.36"30.36"30.36"30.33"30.27"30.24"30.24"30.24"30.24"30.24"30.24"30.24"30.24"30.24"30.21"30.18"30.15"30.15"30.12"30.12"30.12"30.15"30.15"30.15"30.12"30.09"30.06"30"29.97"29.97"
Wind Speed 17.5 mph13.9 mph12.6 mph11.2 mph7.6 mph6.3 mph8.2 mph8.9 mph4.6 mph4.7 mph5.5 mph9.7 mph10.1 mph10.2 mph8.6 mph8.8 mph8.8 mph11.2 mph10.7 mph9 mph7.4 mph6.6 mph8.2 mph11.7 mph7.2 mph7.6 mph10.2 mph7.7 mph7.9 mph7.4 mph5.9 mph6 mph7.3 mph7.2 mph7 mph6.5 mph6.1 mph6.2 mph6.3 mph6.6 mph6.7 mph8.4 mph9.9 mph11.2 mph11.4 mph12 mph12 mph12.2 mph
Wind
Direction
20°
NNE
16°
NNE
26°
NNE
21°
NNE
31°
NNE
37°
NE
48°
NE
41°
NE
58°
ENE
10°
N
45°
NE
38°
NE
39°
NE
58°
ENE
67°
ENE
70°
ENE
71°
ENE
84°
E
94°
E
102°
ESE
112°
ESE
130°
SE
126°
SE
118°
ESE
128°
SE
125°
SE
127°
SE
129°
SE
128°
SE
134°
SE
139°
SE
142°
SE
138°
SE
138°
SE
145°
SE
154°
SSE
160°
SSE
160°
SSE
159°
SSE
160°
SSE
161°
SSE
171°
S
176°
S
180°
S
182°
S
185°
S
188°
S
189°
S

Daily Forecast

Date High Low Precip. Humidity
Today
Feb 28

Clouds
69 °F
38 °F
0%
25%
Thursday
Feb 29

Rain
49 °F
38 °F
80%
32%
Friday
Mar 1

Clear
69 °F
37 °F
0%
49%
Saturday
Mar 2

Clear
81 °F
54 °F
0%
41%
Sunday
Mar 3

Clouds
77 °F
59 °F
0%
54%
Monday
Mar 4

Clouds
76 °F
61 °F
0%
48%
Tuesday
Mar 5

Rain
67 °F
56 °F
24%
76%
Wednesday
Mar 6

Rain
70 °F
56 °F
100%
66%
Thursday
Mar 7

Rain
81 °F
58 °F
100%
55%
Friday
Mar 8

Rain
73 °F
62 °F
100%
23%
Saturday
Mar 9

Clouds
65 °F
48 °F
0%
47%
Sunday
Mar 10

Clouds
77 °F
55 °F
0%
28%
Monday
Mar 11

Clear
80 °F
54 °F
0%
31%
Tuesday
Mar 12

Rain
68 °F
57 °F
89%
87%
Wednesday
Mar 13

Rain
76 °F
63 °F
63%
18%
Thursday
Mar 14

Rain
78 °F
59 °F
100%
59%

Temperature 8-14 Day Outlook



Precipitation 8-14 Day Outlook




Quick Links
Lavon Lake News
Lavon Lake Photos
Lavon Lake Videos




About Us
Contact Us
Site Map
Search Site
Advertise With Us
   
Lavon.USLakes.info
THE LAVON LAKE WEBSITE

Copyright 2024, Lakes Online
Privacy    |    Legal